QPF
0.12 0.11 0.12 0.09 0.07 0.07 0.07 0.09 0.09 0.09 0.09 0.10 0.10 0.10 0.10 0.12 0.15 0.15 0.17 0.18 0.17 0.16 0.15 0.12 0.08 0.05 0.03 0.03 0.01 0.01 0.00 0.00 0.00 0.00 0.00 0.00 0.00 0.00 0.00 0.00 0.00 0.00 0.01
0.06 0.07 0.07 0.07 0.07 0.06 0.05 0.04 0.05 0.06 0.06 0.06 0.06 0.07 0.10 0.10 0.09 0.09 0.13 0.18 0.16 0.13 0.12 0.12 0.11 0.10 0.06 0.03 0.02 0.01 0.01 0.01 0.00 0.00 0.00 0.00 0.00 0.00 0.00 0.00 0.00 0.00 0.00
0.07 0.07 0.05 0.04 0.04 0.03 0.03 0.03 0.04 0.04 0.04 0.04 0.03 0.04 0.05 0.06 0.08 0.09 0.10 0.13 0.12 0.12 0.11 0.12 0.14 0.13 0.10 0.07 0.04 0.03 0.02 0.02 0.01 0.00 0.00 0.00 0.00 0.00 0.00 0.00 0.00 0.00 0.00
0.05 0.04 0.03 0.03 0.03 0.02 0.03 0.04 0.04 0.05 0.04 0.04 0.04 0.04 0.03 0.03 0.04 0.05 0.06 0.06 0.07 0.07 0.09 0.12 0.13 0.13 0.12 0.11 0.08 0.05 0.04 0.02 0.01 0.01 0.00 0.00 0.00 0.00 0.00 0.00 0.00 0.00 0.00
0.03 0.03 0.03 0.03 0.02 0.02 0.02 0.02 0.02 0.02 0.02 0.02 0.02 0.03 0.02 0.02 0.02 0.02 0.03 0.03 0.04 0.05 0.05 0.08 0.14 0.15 0.15 0.14 0.13 0.11 0.07 0.05 0.03 0.02 0.01 0.01 0.00 0.00 0.00 0.00 0.00 0.00 0.00
0.02 0.02 0.03 0.03 0.02 0.01 0.02 0.02 0.01 0.01 0.01 0.01 0.01 0.02 0.03 0.04 0.03 0.02 0.02 0.03 0.04 0.04 0.05 0.06 0.09 0.11 0.15 0.16 0.15 0.15 0.13 0.10 0.07 0.05 0.03 0.02 0.01 0.00 0.00 0.00 0.00 0.00 0.00
0.02 0.02 0.02 0.02 0.01 0.01 0.01 0.01 0.01 0.01 0.01 0.01 0.01 0.02 0.02 0.02 0.02 0.02 0.02 0.02 0.03 0.04 0.05 0.05 0.06 0.06 0.08 0.12 0.13 0.16 0.17 0.17 0.14 0.10 0.07 0.05 0.03 0.02 0.01 0.00 0.00 0.00 0.00
0.03 0.03 0.01 0.01 0.01 0.01 0.01 0.01 0.01 0.00 0.00 0.01 0.01 0.01 0.02 0.02 0.01 0.01 0.02 0.02 0.04 0.06 0.07 0.06 0.06 0.07 0.08 0.09 0.07 0.11 0.15 0.17 0.19 0.17 0.12 0.08 0.06 0.04 0.02 0.02 0.01 0.00 0.00
0.02 0.01 0.01 0.00 0.00 0.00 0.00 0.01 0.00 0.00 0.00 0.00 0.00 0.01 0.01 0.01 0.01 0.00 0.01 0.02 0.04 0.06 0.06 0.06 0.06 0.06 0.07 0.09 0.07 0.08 0.12 0.13 0.17 0.21 0.19 0.14 0.12 0.08 0.05 0.04 0.03 0.02 0.01
0.01 0.01 0.00 0.00 0.00 0.00 0.00 0.00 0.00 0.00 0.00 0.00 0.00 0.00 0.00 0.01 0.01 0.00 0.00 0.01 0.02 0.02 0.04 0.05 0.05 0.05 0.06 0.07 0.06 0.05 0.07 0.09 0.12 0.17 0.18 0.18 0.15 0.11 0.08 0.05 0.04 0.03 0.01
0.00 0.00 0.00 0.00 0.00 0.00 0.00 0.00 0.00 0.00 0.00 0.00 0.00 0.00 0.00 0.00 0.00 0.00 0.00 0.00 0.00 0.01 0.01 0.03 0.04 0.04 0.05 0.06 0.07 0.07 0.06 0.08 0.09 0.12 0.14 0.17 0.17 0.14 0.11 0.09 0.08 0.06 0.04
0.00 0.00 0.00 0.00 0.00 0.00 0.00 0.00 0.00 0.00 0.00 0.00 0.00 0.00 0.00 0.00 0.00 0.00 0.00 0.00 0.00 0.00 0.00 0.01 0.01 0.02 0.04 0.05 0.05 0.06 0.07 0.08 0.08 0.09 0.12 0.14 0.16 0.15 0.13 0.10 0.09 0.08 0.06
0.00 0.00 0.00 0.00 0.00 0.00 0.00 0.00 0.00 0.00 0.00 0.00 0.00 0.00 0.00 0.00 0.00 0.00 0.00 0.00 0.00 0.00 0.00 0.00 0.00 0.01 0.02 0.06 0.07 0.08 0.07 0.08 0.08 0.09 0.11 0.11 0.12 0.14 0.14 0.12 0.11 0.10 0.08
0.00 0.00 0.00 0.00 0.00 0.00 0.00 0.00 0.00 0.00 0.00 0.00 0.00 0.00 0.00 0.00 0.00 0.00 0.00 0.00 0.00 0.00 0.00 0.00 0.00 0.01 0.03 0.05 0.07 0.10 0.09 0.09 0.09 0.10 0.11 0.12 0.11 0.10 0.11 0.12 0.13 0.12 0.10
0.00 0.00 0.00 0.00 0.00 0.00 0.00 0.00 0.00 0.00 0.00 0.00 0.00 0.00 0.00 0.00 0.00 0.00 0.00 0.00 0.00 0.00 0.00 0.00 0.00 0.01 0.02 0.03 0.05 0.07 0.07 0.07 0.09 0.09 0.10 0.11 0.10 0.09 0.08 0.07 0.08 0.09 0.09
0.00 0.00 0.00 0.00 0.00 0.00 0.00 0.00 0.00 0.00 0.00 0.00 0.00 0.00 0.00 0.00 0.00 0.00 0.00 0.00 0.00 0.01 0.00 0.00 0.00 0.00 0.02 0.02 0.03 0.04 0.05 0.07 0.07 0.08 0.09 0.09 0.09 0.08 0.09 0.07 0.07 0.06 0.06
0.00 0.00 0.00 0.00 0.00 0.00 0.00 0.00 0.00 0.00 0.00 0.00 0.00 0.00 0.00 0.00 0.00 0.00 0.00 0.00 0.00 0.01 0.00 0.00 0.00 0.01 0.01 0.02 0.04 0.04 0.05 0.06 0.06 0.06 0.07 0.08 0.09 0.09 0.09 0.08 0.07 0.06 0.05
0.00 0.00 0.00 0.00 0.00 0.00 0.00 0.00 0.00 0.00 0.00 0.00 0.00 0.00 0.00 0.00 0.00 0.00 0.00 0.00 0.00 0.00 0.00 0.00 0.00 0.00 0.01 0.01 0.02 0.03 0.05 0.05 0.05 0.05 0.05 0.07 0.09 0.09 0.10 0.09 0.07 0.07 0.06
0.00 0.00 0.00 0.00 0.00 0.00 0.00 0.00 0.00 0.00 0.00 0.00 0.00 0.00 0.00 0.00 0.00 0.00 0.00 0.00 0.00 0.00 0.00 0.00 0.00 0.00 0.00 0.01 0.01 0.01 0.03 0.05 0.05 0.05 0.05 0.06 0.08 0.10 0.10 0.10 0.09 0.08 0.07
0.00 0.00 0.00 0.00 0.00 0.00 0.00 0.00 0.00 0.00 0.00 0.00 0.00 0.00 0.00 0.00 0.00 0.00 0.00 0.00 0.00 0.00 0.00 0.00 0.00 0.00 0.00 0.01 0.01 0.01 0.02 0.03 0.05 0.06 0.06 0.07 0.08 0.10 0.11 0.11 0.10 0.09 0.08
0.00 0.00 0.00 0.00 0.00 0.00 0.00 0.00 0.00 0.00 0.00 0.00 0.00 0.00 0.00 0.00 0.00 0.00 0.00 0.00 0.00 0.00 0.00 0.00 0.00 0.00 0.01 0.01 0.01 0.02 0.02 0.02 0.04 0.06 0.08 0.08 0.08 0.09 0.10 0.11 0.12 0.11 0.08
0.00 0.00 0.00 0.00 0.00 0.00 0.00 0.00 0.00 0.00 0.00 0.00 0.00 0.00 0.00 0.00 0.00 0.00 0.00 0.00 0.00 0.00 0.00 0.00 0.00 0.00 0.01 0.01 0.01 0.02 0.04 0.03 0.03 0.05 0.08 0.09 0.10 0.10 0.10 0.10 0.10 0.12 0.10
0.00 0.00 0.00 0.00 0.00 0.00 0.00 0.00 0.00 0.00 0.00 0.00 0.00 0.00 0.00 0.00 0.00 0.00 0.00 0.00 0.00 0.00 0.00 0.00 0.00 0.00 0.00 0.01 0.01 0.01 0.02 0.03 0.03 0.06 0.08 0.09 0.12 0.14 0.13 0.12 0.12 0.11 0.11
0.00 0.00 0.00 0.00 0.00 0.00 0.00 0.00 0.00 0.00 0.00 0.00 0.00 0.00 0.00 0.00 0.00 0.00 0.00 0.00 0.00 0.00 0.00 0.00 0.00 0.00 0.00 0.00 0.00 0.01 0.02 0.02 0.03 0.05 0.10 0.12 0.14 0.15 0.17 0.17 0.16 0.13 0.11
0.00 0.00 0.00 0.00 0.00 0.00 0.00 0.00 0.00 0.00 0.00 0.00 0.00 0.00 0.00 0.00 0.00 0.00 0.00 0.00 0.00 0.00 0.00 0.00 0.00 0.00 0.00 0.00 0.00 0.00 0.01 0.03 0.04 0.05 0.08 0.12 0.15 0.19 0.21 0.21 0.19 0.17 0.13
0.00 0.00 0.00 0.00 0.00 0.00 0.00 0.00 0.00 0.00 0.00 0.00 0.00 0.00 0.00 0.00 0.00 0.00 0.00 0.00 0.00 0.00 0.00 0.00 0.00 0.00 0.00 0.00 0.01 0.00 0.01 0.02 0.06 0.08 0.09 0.13 0.13 0.17 0.23 0.24 0.21 0.18 0.16
MSLP
1016.77 1016.83 1016.85 1016.87 1016.91 1016.98 1017.09 1017.22 1017.36 1017.48 1017.57 1017.62 1017.64 1017.64 1017.64 1017.64 1017.66 1017.70 1017.74 1017.78 1017.82 1017.86 1017.91 1018.00 1018.14 1018.34 1018.62 1018.97 1019.36 1019.77 1020.18 1020.57 1020.93 1021.26 1021.56 1021.84 1022.12 1022.38 1022.62 1022.84 1023.02 1023.16 1023.26
1016.66 1016.71 1016.74 1016.78 1016.85 1016.96 1017.10 1017.27 1017.43 1017.57 1017.67 1017.73 1017.75 1017.74 1017.72 1017.70 1017.69 1017.68 1017.68 1017.67 1017.67 1017.68 1017.71 1017.79 1017.92 1018.11 1018.38 1018.71 1019.07 1019.46 1019.86 1020.24 1020.61 1020.96 1021.31 1021.65 1021.99 1022.31 1022.61 1022.87 1023.07 1023.21 1023.30
1016.50 1016.55 1016.59 1016.67 1016.79 1016.95 1017.14 1017.34 1017.53 1017.69 1017.80 1017.87 1017.89 1017.88 1017.84 1017.79 1017.74 1017.68 1017.62 1017.56 1017.50 1017.46 1017.46 1017.50 1017.61 1017.79 1018.04 1018.34 1018.69 1019.05 1019.42 1019.79 1020.17 1020.54 1020.92 1021.32 1021.71 1022.10 1022.45 1022.76 1022.99 1023.16 1023.27
1016.31 1016.36 1016.44 1016.56 1016.73 1016.95 1017.18 1017.42 1017.64 1017.81 1017.94 1018.01 1018.03 1018.01 1017.96 1017.89 1017.80 1017.69 1017.56 1017.43 1017.31 1017.21 1017.15 1017.15 1017.22 1017.37 1017.59 1017.87 1018.19 1018.52 1018.88 1019.24 1019.61 1020.00 1020.41 1020.85 1021.30 1021.74 1022.15 1022.50 1022.79 1023.00 1023.14
1016.12 1016.17 1016.28 1016.46 1016.68 1016.95 1017.23 1017.49 1017.73 1017.91 1018.04 1018.11 1018.14 1018.12 1018.07 1017.99 1017.87 1017.71 1017.53 1017.33 1017.13 1016.96 1016.83 1016.76 1016.78 1016.89 1017.07 1017.31 1017.60 1017.92 1018.25 1018.60 1018.97 1019.37 1019.80 1020.27 1020.75 1021.24 1021.70 1022.11 1022.45 1022.71 1022.91
1015.95 1016.01 1016.15 1016.37 1016.64 1016.94 1017.25 1017.53 1017.77 1017.95 1018.08 1018.16 1018.19 1018.19 1018.15 1018.08 1017.95 1017.77 1017.54 1017.28 1017.01 1016.76 1016.55 1016.41 1016.36 1016.41 1016.54 1016.74 1016.99 1017.27 1017.59 1017.92 1018.28 1018.69 1019.13 1019.61 1020.12 1020.64 1021.15 1021.61 1022.00 1022.33 1022.59
1015.83 1015.89 1016.06 1016.30 1016.60 1016.93 1017.25 1017.52 1017.75 1017.92 1018.04 1018.13 1018.18 1018.21 1018.21 1018.16 1018.05 1017.87 1017.62 1017.32 1016.99 1016.66 1016.37 1016.15 1016.03 1016.00 1016.07 1016.22 1016.42 1016.67 1016.95 1017.27 1017.61 1018.00 1018.44 1018.93 1019.45 1019.98 1020.51 1021.01 1021.46 1021.84 1022.17
1015.79 1015.84 1016.01 1016.27 1016.59 1016.92 1017.22 1017.47 1017.68 1017.83 1017.94 1018.03 1018.12 1018.19 1018.24 1018.24 1018.17 1018.02 1017.78 1017.46 1017.09 1016.70 1016.34 1016.05 1015.84 1015.73 1015.73 1015.81 1015.96 1016.16 1016.41 1016.69 1017.01 1017.37 1017.79 1018.26 1018.77 1019.30 1019.83 1020.35 1020.83 1021.26 1021.65
1015.82 1015.87 1016.04 1016.29 1016.60 1016.90 1017.17 1017.39 1017.56 1017.68 1017.79 1017.89 1018.01 1018.13 1018.25 1018.32 1018.32 1018.21 1018.00 1017.69 1017.30 1016.88 1016.46 1016.10 1015.82 1015.64 1015.56 1015.57 1015.65 1015.80 1015.99 1016.22 1016.49 1016.82 1017.20 1017.63 1018.10 1018.61 1019.13 1019.64 1020.13 1020.59 1021.01
1015.92 1015.96 1016.11 1016.35 1016.63 1016.90 1017.12 1017.30 1017.42 1017.51 1017.61 1017.72 1017.87 1018.05 1018.23 1018.37 1018.44 1018.40 1018.24 1017.96 1017.58 1017.14 1016.70 1016.28 1015.94 1015.69 1015.54 1015.48 1015.49 1015.57 1015.69 1015.86 1016.08 1016.35 1016.67 1017.05 1017.47 1017.93 1018.41 1018.89 1019.37 1019.83 1020.27
1016.06 1016.09 1016.23 1016.45 1016.68 1016.90 1017.07 1017.19 1017.27 1017.33 1017.41 1017.53 1017.71 1017.93 1018.17 1018.38 1018.51 1018.54 1018.43 1018.19 1017.84 1017.41 1016.96 1016.53 1016.15 1015.85 1015.64 1015.51 1015.45 1015.45 1015.51 1015.60 1015.76 1015.96 1016.21 1016.52 1016.87 1017.27 1017.69 1018.12 1018.56 1019.00 1019.44
1016.21 1016.25 1016.37 1016.55 1016.74 1016.91 1017.02 1017.09 1017.12 1017.14 1017.21 1017.33 1017.52 1017.77 1018.04 1018.29 1018.48 1018.56 1018.50 1018.31 1018.00 1017.61 1017.18 1016.75 1016.36 1016.03 1015.78 1015.59 1015.47 1015.40 1015.38 1015.41 1015.48 1015.61 1015.79 1016.03 1016.31 1016.63 1016.98 1017.35 1017.74 1018.14 1018.55
1016.35 1016.39 1016.50 1016.65 1016.79 1016.90 1016.95 1016.96 1016.95 1016.95 1016.99 1017.10 1017.29 1017.54 1017.83 1018.10 1018.31 1018.42 1018.40 1018.26 1018.00 1017.66 1017.27 1016.87 1016.50 1016.17 1015.89 1015.67 1015.49 1015.36 1015.28 1015.23 1015.24 1015.29 1015.40 1015.56 1015.77 1016.02 1016.30 1016.61 1016.93 1017.28 1017.66
1016.44 1016.49 1016.59 1016.70 1016.79 1016.84 1016.85 1016.82 1016.77 1016.73 1016.75 1016.84 1017.01 1017.25 1017.51 1017.77 1017.98 1018.10 1018.11 1018.01 1017.80 1017.52 1017.19 1016.85 1016.52 1016.21 1015.94 1015.69 1015.48 1015.30 1015.16 1015.05 1014.99 1014.98 1015.02 1015.12 1015.27 1015.45 1015.67 1015.91 1016.17 1016.46 1016.79
1016.48 1016.54 1016.62 1016.69 1016.74 1016.74 1016.70 1016.62 1016.54 1016.49 1016.48 1016.55 1016.69 1016.89 1017.12 1017.34 1017.52 1017.62 1017.64 1017.57 1017.41 1017.20 1016.94 1016.67 1016.40 1016.13 1015.88 1015.64 1015.41 1015.20 1015.00 1014.84 1014.73 1014.66 1014.65 1014.70 1014.79 1014.92 1015.07 1015.25 1015.46 1015.69 1015.97
1016.45 1016.51 1016.57 1016.60 1016.61 1016.57 1016.49 1016.39 1016.28 1016.21 1016.19 1016.23 1016.33 1016.48 1016.65 1016.82 1016.95 1017.03 1017.04 1016.99 1016.88 1016.72 1016.55 1016.35 1016.15 1015.94 1015.73 1015.50 1015.26 1015.03 1014.80 1014.60 1014.44 1014.33 1014.28 1014.28 1014.33 1014.41 1014.52 1014.65 1014.80 1014.98 1015.22
1016.34 1016.40 1016.43 1016.43 1016.40 1016.32 1016.22 1016.10 1015.99 1015.91 1015.87 1015.89 1015.95 1016.05 1016.16 1016.27 1016.34 1016.38 1016.38 1016.33 1016.26 1016.16 1016.05 1015.94 1015.81 1015.66 1015.48 1015.28 1015.04 1014.80 1014.55 1014.31 1014.12 1013.98 1013.89 1013.85 1013.86 1013.91 1013.97 1014.06 1014.16 1014.30 1014.49
1016.16 1016.21 1016.22 1016.18 1016.11 1016.01 1015.89 1015.77 1015.66 1015.58 1015.54 1015.54 1015.57 1015.62 1015.67 1015.71 1015.74 1015.73 1015.70 1015.66 1015.61 1015.56 1015.51 1015.46 1015.40 1015.30 1015.16 1014.98 1014.76 1014.50 1014.24 1013.98 1013.76 1013.59 1013.47 1013.40 1013.38 1013.38 1013.41 1013.44 1013.50 1013.59 1013.74
1015.91 1015.94 1015.92 1015.86 1015.77 1015.65 1015.52 1015.40 1015.30 1015.23 1015.19 1015.18 1015.18 1015.19 1015.20 1015.19 1015.16 1015.11 1015.06 1015.01 1014.98 1014.96 1014.96 1014.96 1014.94 1014.88 1014.78 1014.62 1014.40 1014.15 1013.87 1013.60 1013.36 1013.16 1013.01 1012.91 1012.85 1012.81 1012.79 1012.78 1012.79 1012.83 1012.93
1015.60 1015.60 1015.56 1015.48 1015.37 1015.24 1015.12 1015.00 1014.91 1014.85 1014.82 1014.80 1014.79 1014.77 1014.74 1014.68 1014.61 1014.53 1014.46 1014.40 1014.37 1014.38 1014.40 1014.43 1014.44 1014.41 1014.33 1014.19 1013.98 1013.73 1013.45 1013.17 1012.91 1012.69 1012.51 1012.38 1012.27 1012.18 1012.11 1012.04 1011.99 1011.98 1012.03
1015.23 1015.21 1015.15 1015.05 1014.93 1014.80 1014.67 1014.56 1014.48 1014.43 1014.40 1014.38 1014.36 1014.33 1014.27 1014.18 1014.08 1013.98 1013.89 1013.82 1013.79 1013.79 1013.82 1013.86 1013.89 1013.88 1013.81 1013.68 1013.48 1013.24 1012.96 1012.68 1012.42 1012.18 1011.98 1011.80 1011.65 1011.51 1011.37 1011.23 1011.12 1011.05 1011.05
1014.81 1014.78 1014.70 1014.59 1014.45 1014.32 1014.19 1014.08 1014.01 1013.96 1013.93 1013.91 1013.88 1013.84 1013.76 1013.66 1013.54 1013.42 1013.31 1013.24 1013.19 1013.19 1013.22 1013.25 1013.28 1013.27 1013.21 1013.08 1012.90 1012.67 1012.41 1012.15 1011.88 1011.64 1011.42 1011.21 1011.01 1010.81 1010.60 1010.39 1010.21 1010.08 1010.03
1014.37 1014.32 1014.22 1014.09 1013.95 1013.80 1013.67 1013.56 1013.48 1013.42 1013.39 1013.37 1013.34 1013.28 1013.20 1013.10 1012.97 1012.84 1012.73 1012.64 1012.58 1012.56 1012.57 1012.59 1012.60 1012.58 1012.52 1012.41 1012.25 1012.04 1011.81 1011.57 1011.32 1011.09 1010.85 1010.62 1010.38 1010.12 1009.84 1009.56 1009.31 1009.11 1009.00
1013.93 1013.85 1013.74 1013.59 1013.43 1013.26 1013.11 1012.99 1012.89 1012.83 1012.79 1012.76 1012.72 1012.67 1012.59 1012.49 1012.37 1012.24 1012.11 1012.01 1011.94 1011.89 1011.87 1011.87 1011.86 1011.83 1011.76 1011.66 1011.52 1011.35 1011.16 1010.95 1010.74 1010.52 1010.29 1010.04 1009.77 1009.46 1009.12 1008.78 1008.46 1008.20 1008.04
1013.49 1013.39 1013.25 1013.08 1012.89 1012.70 1012.53 1012.38 1012.27 1012.19 1012.14 1012.10 1012.07 1012.02 1011.95 1011.85 1011.74 1011.61 1011.48 1011.36 1011.27 1011.20 1011.14 1011.10 1011.07 1011.01 1010.94 1010.85 1010.74 1010.60 1010.45 1010.29 1010.12 1009.93 1009.72 1009.47 1009.18 1008.83 1008.45 1008.06 1007.68 1007.36 1007.16
1013.06 1012.93 1012.76 1012.56 1012.35 1012.13 1011.94 1011.77 1011.64 1011.54 1011.48 1011.44 1011.41 1011.37 1011.31 1011.22 1011.11 1010.98 1010.85 1010.72 1010.60 1010.49 1010.40 1010.32 1010.24 1010.16 1010.08 1009.99 1009.89 1009.79 1009.68 1009.57 1009.44 1009.30 1009.11 1008.87 1008.58 1008.22 1007.81 1007.38 1006.96 1006.61 1006.37
Thickness
5734 5733 5731 5730 5729 5728 5728 5727 5726 5726 5725 5724 5724 5725 5725 5726 5726 5728 5728 5728 5727 5726 5726 5726 5725 5724 5724 5724 5724 5723 5723 5722 5721 5721 5720 5720 5719 5719 5718 5717 5717 5716 5715
5731 5730 5728 5727 5725 5724 5724 5724 5723 5723 5722 5721 5721 5722 5723 5724 5724 5725 5725 5725 5724 5724 5724 5724 5723 5723 5722 5722 5722 5722 5722 5721 5721 5720 5720 5719 5719 5718 5717 5717 5716 5716 5715
5729 5726 5724 5723 5721 5721 5721 5720 5720 5719 5719 5718 5718 5719 5720 5721 5721 5722 5722 5721 5721 5722 5722 5722 5722 5721 5721 5721 5721 5721 5720 5720 5720 5719 5719 5718 5718 5717 5717 5717 5716 5715 5715
5726 5723 5721 5719 5718 5717 5717 5716 5715 5714 5714 5714 5714 5715 5717 5718 5718 5719 5719 5719 5720 5720 5720 5720 5720 5720 5720 5720 5720 5720 5719 5719 5719 5718 5718 5718 5717 5717 5716 5716 5716 5715 5714
5723 5721 5718 5716 5715 5714 5713 5712 5710 5709 5708 5708 5709 5711 5712 5713 5714 5715 5717 5717 5718 5718 5719 5719 5719 5719 5718 5718 5718 5719 5718 5718 5717 5717 5717 5717 5716 5716 5716 5715 5715 5715 5714
5720 5718 5715 5713 5711 5709 5707 5706 5705 5704 5703 5703 5705 5706 5707 5709 5710 5712 5713 5714 5715 5716 5716 5717 5717 5717 5717 5717 5717 5717 5717 5717 5717 5716 5716 5716 5715 5715 5715 5715 5714 5714 5714
5716 5714 5712 5709 5707 5704 5702 5701 5700 5698 5697 5698 5696 5696 5700 5703 5705 5707 5708 5709 5710 5711 5712 5713 5714 5715 5715 5715 5716 5716 5716 5716 5716 5715 5715 5715 5714 5714 5714 5714 5714 5713 5713
5713 5710 5708 5705 5703 5700 5697 5696 5694 5691 5690 5691 5687 5684 5682 5688 5694 5700 5701 5702 5703 5704 5706 5708 5709 5710 5712 5713 5714 5715 5715 5715 5715 5715 5714 5714 5714 5713 5713 5713 5713 5713 5713
5709 5707 5705 5702 5699 5696 5692 5690 5689 5685 5682 5682 5682 5678 5673 5671 5677 5686 5691 5693 5694 5697 5699 5702 5704 5705 5707 5709 5711 5712 5713 5713 5713 5713 5713 5712 5712 5712 5712 5712 5712 5712 5712
5706 5704 5702 5699 5695 5692 5689 5686 5684 5681 5678 5674 5674 5674 5673 5671 5667 5669 5677 5682 5685 5688 5691 5695 5697 5700 5702 5704 5706 5708 5709 5710 5710 5711 5711 5711 5711 5711 5711 5711 5711 5711 5711
5702 5701 5698 5695 5691 5687 5685 5682 5679 5677 5674 5671 5668 5667 5666 5665 5664 5661 5661 5667 5674 5679 5683 5686 5690 5693 5696 5699 5701 5703 5705 5706 5708 5708 5709 5710 5710 5710 5710 5710 5710 5710 5710
5697 5696 5693 5690 5686 5683 5680 5677 5675 5672 5669 5667 5664 5662 5659 5657 5656 5655 5653 5655 5660 5667 5674 5678 5681 5685 5688 5692 5695 5698 5700 5702 5704 5706 5707 5708 5709 5709 5709 5709 5709 5710 5710
5692 5690 5688 5685 5681 5678 5676 5672 5669 5666 5664 5661 5659 5656 5655 5653 5652 5650 5648 5649 5651 5657 5663 5669 5674 5677 5680 5684 5687 5691 5694 5697 5699 5701 5703 5705 5706 5707 5708 5708 5709 5709 5710
5689 5686 5684 5680 5677 5674 5671 5667 5664 5661 5658 5655 5653 5651 5649 5647 5647 5645 5644 5643 5643 5645 5650 5656 5664 5668 5672 5675 5679 5684 5688 5691 5694 5696 5699 5701 5703 5705 5706 5707 5708 5708 5709
5687 5683 5680 5676 5673 5669 5666 5662 5658 5655 5652 5649 5646 5644 5642 5641 5640 5640 5639 5638 5636 5635 5639 5646 5651 5659 5663 5667 5671 5675 5679 5684 5687 5690 5693 5696 5699 5702 5703 5705 5706 5707 5708
5684 5680 5676 5672 5668 5665 5661 5656 5652 5648 5645 5641 5639 5636 5634 5633 5632 5632 5631 5631 5631 5630 5631 5637 5642 5648 5654 5658 5663 5666 5671 5676 5680 5684 5687 5690 5694 5697 5700 5702 5704 5706 5707
5681 5677 5673 5668 5664 5660 5656 5651 5646 5642 5638 5634 5632 5629 5627 5626 5624 5623 5623 5622 5622 5623 5624 5629 5633 5639 5643 5648 5653 5658 5662 5667 5672 5677 5681 5684 5688 5692 5695 5698 5701 5704 5705
5679 5674 5670 5664 5660 5655 5651 5646 5641 5637 5632 5628 5625 5622 5619 5618 5616 5614 5614 5613 5613 5614 5615 5619 5623 5627 5632 5637 5642 5647 5653 5659 5664 5670 5674 5678 5683 5687 5690 5694 5697 5700 5702
5676 5671 5666 5661 5656 5651 5646 5641 5636 5631 5626 5622 5618 5614 5612 5609 5607 5606 5605 5604 5605 5607 5607 5609 5612 5616 5621 5626 5631 5637 5643 5649 5655 5661 5666 5672 5677 5681 5685 5689 5693 5697 5699
5672 5667 5663 5657 5652 5647 5642 5637 5631 5625 5620 5615 5611 5607 5604 5602 5600 5598 5598 5597 5597 5596 5597 5599 5601 5604 5608 5614 5618 5623 5629 5637 5644 5651 5658 5664 5670 5675 5680 5684 5689 5693 5696
5670 5664 5659 5654 5648 5643 5638 5632 5626 5620 5614 5609 5604 5601 5598 5597 5595 5594 5593 5591 5589 5588 5588 5588 5591 5593 5597 5600 5605 5611 5617 5624 5632 5640 5647 5655 5661 5667 5673 5678 5682 5687 5691
5666 5660 5655 5649 5643 5639 5634 5628 5621 5614 5608 5602 5598 5595 5592 5591 5590 5589 5588 5587 5585 5582 5580 5580 5582 5583 5587 5591 5595 5600 5605 5611 5618 5628 5634 5642 5650 5658 5665 5671 5677 5681 5686
5661 5655 5650 5645 5639 5634 5629 5623 5617 5609 5602 5597 5592 5589 5587 5587 5584 5582 5581 5580 5579 5578 5578 5576 5576 5578 5580 5584 5587 5591 5595 5600 5607 5616 5622 5631 5640 5648 5656 5663 5669 5675 5679
5656 5651 5646 5640 5634 5630 5625 5619 5612 5605 5598 5593 5588 5584 5581 5579 5578 5576 5574 5573 5571 5571 5572 5572 5572 5574 5576 5578 5580 5584 5587 5593 5599 5606 5612 5619 5629 5637 5646 5654 5661 5667 5673
5652 5647 5642 5636 5630 5626 5621 5615 5608 5600 5593 5588 5584 5581 5577 5574 5573 5571 5567 5565 5564 5564 5566 5567 5568 5569 5570 5572 5573 5574 5578 5581 5588 5595 5602 5609 5618 5626 5635 5644 5652 5659 5665
5648 5643 5637 5632 5626 5621 5617 5611 5604 5595 5588 5584 5580 5576 5573 5570 5568 5564 5560 5557 5556 5557 5557 5558 5559 5561 5562 5564 5567 5568 5571 5574 5578 5584 5594 5601 5608 5614 5623 5634 5641 5648 5654